Location: Rio Negrinho
(26.2394°S, 49.4999°W)
Time: 20:04:23
(UTC+00:00)

Envisat - Pass Details

Date: 31 July 2021
Orbit: 764 x 766 km, 98.2° (Epoch: 17 September)

Event Time Altitude Azimuth Distance (km) Brightness Sun altitude
Rises 07:20:52 0° 32° (NNE) 3,216 6.7 -35.1°
Reaches altitude 10° 07:23:17 10° 40° (NE) 2,297 5.9 -34.6°
Maximum altitude 07:27:56 37° 107° (ESE) 1,173 4.3 -33.6°
Enters shadow 07:28:13 37° 114° (ESE) 1,179 4.2 -33.5°
